LiveATC.Net - Listen to live air traffic control over the Internet!


ICAO: EYVP  IATA:   Airport: Paluknys Airport
City: Paluknys
Country: Lithuania   Continent: Europe
EYVI METAR Weather: EYVI 290620Z 07009KT 9999 -RASN OVC004 01/01 Q0991 NOSIG
EYVP Flight Activity (FlightAware)

EYVP CTAF
Feed Status: DOWN
Last heard on: 2021-09-04 17:32:39 (85 days 13 hours 9 minutes ago)
Archive Access: EYVP CTAF
FacilityFrequency
EYVP Paluknis CTAF119.100

NOTICE

Unauthorized use prohibited. See LiveATC.net Terms of Service


Airport/ARTCC Code
Frequency Search
(e.g., 124.400, 128.75)
Site-wide search
 


Browse Feeds
Top 50 Feeds
HF Oceanic Feeds
Coverage Map
Bad Weather Areas

LiveATC FAQ
Offer LiveATC feed
Contact LiveATC.net
Press Inquiries

LiveATC on iPhone
LiveATC on Android

Windows Phone
Windows 8/10

LiveATC Mobile
(Mobile browser)

ATC Audio Archives
Interesting Recordings

LiveATC Forums


Home Page
About LiveATC.net
Make a Donation
Terms of Use
Privacy Policy

Canadian Air Freqs

AIRMETs/SIGMETs

FAA Airport Status
NAS Status
Arrival Demand


Server Software By:
Icecast.org
Liquidsoap